[[{"header":{"parameterUnit":"m.s-1","parameterCategory":1,"la1":30.2991,"la2":30.254,"lo1":-89.0895,"lo2":-89.0444,"dy":0.0017,"dx":0.0017,"nx":28,"ny":28,"refTime":"2025-05-18T21:00:00:Z","depth":0,"parameterNumber":2,"parameterNumberName":"U-component_of_WINDS"},"data":[0,0,0,0,0,0,0,0,0,0,0,0,0,0,0,0,0,0,0,0,0,0,0,0,0,0,0,0,0,0,0,0,0,0,0,0,0,0,0,0,0,0,0,0,0,0,0,0,0,0,0,0,0,0,0,0,0,0,-0.6889,-0.689,0,-0.6925,-0.6925,-0.6925,-0.6936,-0.6935,-0.6935,-0.6935,-0.6972,-0.6973,-0.6975,0,0,0,0,0,0,0,0,0,0,0,0,0,-0.6834,-0.6834,-0.6889,-0.689,-0.689,-0.6924,-0.6925,-0.6925,-0.6936,-0.6935,-0.6935,-0.6935,-0.6972,-0.6973,-0.6975,0,0,0,0,0,0,0,0,0,0,0,0,0,-0.6862,-0.6835,-0.6889,-0.6899,-0.6901,-0.6924,-0.6925,-0.6926,-0.6936,-0.6935,-0.6935,-0.6935,-0.6971,-0.6973,-0.6975,-0.6991,0,0,-0.698,-0.6981,0,0,0,0,0,0,0,0,-0.6861,-0.6864,-0.6897,-0.6899,-0.69,-0.6925,-0.6919,-0.6948,-0.6936,-0.6922,-0.6935,-0.6935,-0.6957,-0.696,-0.6967,-0.6993,-0.6995,-0.698,-0.6981,-0.6982,-0.6983,0,0,0,0,0,0,0,-0.6859,-0.6863,-0.6903,-0.6898,-0.69,-0.6903,-0.6907,-0.6924,-0.6941,-0.6924,-0.6924,-0.6928,-0.6958,-0.6965,-0.6968,-0.6995,-0.698,-0.6982,-0.6983,-0.6984,-0.7039,-0.7039,0,0,0,0,0,0,-0.6855,-0.6861,-0.6902,-0.6904,-0.6879,-0.6904,-0.6908,-0.6918,-0.6941,-0.6944,-0.6929,-0.6929,-0.6963,-0.6966,-0.697,-0.6991,-0.6982,-0.6984,-0.6985,-0.7038,-0.7039,-0.7039,0,0,0,0,0,0,-0.6853,-0.6858,-0.6901,-0.6883,-0.6889,-0.6906,-0.6916,-0.6918,-0.6926,-0.6945,-0.6948,-0.6933,-0.6963,-0.6967,-0.6986,-0.6993,-0.6985,-0.6986,-0.7038,-0.7038,-0.7039,-0.7034,0,0,0,0,0,0,-0.6852,-0.6858,-0.6863,-0.6883,-0.689,-0.6916,-0.6916,-0.6919,-0.6929,-0.693,-0.695,-0.6953,-0.6963,-0.6984,-0.6988,-0.6995,-0.6988,-0.7037,-0.7038,-0.7039,-0.7034,-0.7035,-0.7035,0,0,0,0,0,-0.685,-0.6861,-0.6863,-0.6868,-0.6897,-0.6916,-0.692,-0.6931,-0.6929,-0.6936,-0.6948,-0.6952,-0.6991,-0.6985,-0.699,-0.6998,-0.7037,-0.7038,-0.7039,-0.7034,-0.7035,-0.7035,0,0,0,0,0,0,-0.6841,-0.6863,-0.6867,-0.6884,-0.6898,-0.6918,-0.6926,-0.6931,-0.6946,-0.6946,-0.6959,-0.6964,-0.6982,-0.6992,-0.6985,-0.7016,-0.7014,-0.7016,-0.7009,-0.701,-0.7011,-0.7008,-0.6989,0,0,0,0,0,-0.6841,-0.6855,-0.6874,-0.6887,-0.6894,-0.6909,-0.6918,-0.6925,-0.694,-0.6946,-0.696,-0.6975,-0.6991,-0.7001,-0.7017,-0.7036,-0.7041,-0.7044,-0.7044,-0.7045,-0.7046,-0.7059,-0.706,-0.7042,-0.7042,-0.7042,0,0,-0.6842,-0.6856,-0.6863,-0.6886,-0.6898,-0.6912,-0.6914,-0.6929,-0.694,-0.6949,-0.6968,-0.6978,-0.6996,-0.7016,-0.7025,-0.7025,-0.7053,-0.7046,-0.7046,-0.7048,-0.706,-0.7061,-0.7063,-0.7043,-0.7043,-0.7042,0,0,-0.685,-0.6861,-0.6875,-0.6887,-0.6905,-0.6915,-0.6918,-0.6937,-0.6945,-0.6964,-0.6971,-0.6985,-0.7012,-0.7025,-0.7035,-0.705,-0.7055,-0.7055,-0.7058,-0.707,-0.7071,-0.7073,-0.7079,-0.7081,-0.7056,-0.7056,-0.7056,0,-0.6849,-0.687,-0.6881,-0.6896,-0.6906,-0.6915,-0.6929,-0.6941,-0.6963,-0.697,-0.6969,-0.7004,-0.7017,-0.704,-0.7044,-0.7051,-0.7056,-0.7052,-0.707,-0.7072,-0.7073,-0.7079,-0.7081,-0.7056,-0.7056,-0.7056,-0.7056,0,-0.6867,-0.6882,-0.6891,-0.6912,-0.6923,-0.6938,-0.6952,-0.6963,-0.6969,-0.698,-0.7,-0.7016,-0.7036,-0.7042,-0.7048,-0.7067,-0.7066,-0.7068,-0.7066,-0.7075,-0.7081,-0.7083,-0.7056,-0.7056,-0.7056,-0.7056,0,0,-0.687,-0.6898,-0.6901,-0.6912,-0.6933,-0.6945,-0.6961,-0.6979,-0.6989,-0.7004,-0.7018,-0.7041,-0.7044,-0.7055,-0.7063,-0.7074,-0.7086,-0.7074,-0.7075,-0.7076,-0.7108,-0.7107,-0.7109,-0.7089,-0.709,-0.709,-0.7107,0,-0.6881,-0.6908,-0.692,-0.6942,-0.6957,-0.6966,-0.698,-0.6995,-0.7006,-0.7021,-0.7033,-0.705,-0.7051,-0.7058,-0.7069,-0.7082,-0.7092,-0.7081,-0.7103,-0.7104,-0.7098,-0.7112,-0.711,-0.7125,-0.7109,-0.711,-0.711,0,-0.6897,-0.6913,-0.6937,-0.6958,-0.6964,-0.6976,-0.6995,-0.7009,-0.7027,-0.7034,-0.7048,-0.7056,-0.7074,-0.7071,-0.7097,-0.7089,-0.7099,-0.7107,-0.7108,-0.7111,-0.7107,-0.7115,-0.713,-0.7132,-0.7113,-0.7113,-0.7113,0,-0.6898,-0.6925,-0.6943,-0.6951,-0.6976,-0.6984,-0.6995,-0.7013,-0.7024,-0.7041,-0.7049,-0.7068,-0.7078,-0.7093,-0.7107,-0.7104,-0.7132,-0.713,-0.7139,-0.7139,-0.7144,-0.7143,-0.7161,-0.715,-0.715,-0.715,-0.715,0,-0.6909,-0.6923,-0.6944,-0.6955,-0.6971,-0.6985,-0.7002,-0.7013,-0.7029,-0.7044,-0.7054,-0.7067,-0.7084,-0.71,-0.7111,-0.7131,-0.7136,-0.7143,-0.7146,-0.7142,-0.7141,-0.7149,-0.7148,-0.7151,-0.7151,-0.715,-0.715,0,-0.6912,-0.6926,-0.6946,-0.6968,-0.6974,-0.6986,-0.7005,-0.7017,-0.7028,-0.7047,-0.7052,-0.707,-0.709,-0.7105,-0.7131,-0.7138,-0.716,-0.7162,-0.7153,-0.7155,-0.7163,-0.7162,-0.7186,-0.719,-0.7176,-0.7176,-0.7176,0,-0.6918,-0.6929,-0.6952,-0.6963,-0.6973,-0.6989,-0.7001,-0.7016,-0.7028,-0.705,-0.7059,-0.708,-0.7096,-0.7128,-0.7144,-0.7164,-0.7168,-0.7175,-0.717,-0.7167,-0.7168,-0.7167,-0.7169,-0.7175,-0.7175,-0.7175,-0.7175,0,-0.6927,-0.6934,-0.695,-0.6969,-0.6983,-0.6998,-0.7014,-0.7022,-0.704,-0.7053,-0.7073,-0.7087,-0.7113,-0.7133,-0.7155,-0.7168,-0.7175,-0.7176,-0.718,-0.7176,-0.717,-0.7174,-0.7155,-0.7176,-0.7175,-0.7175,-0.7175,-0.7175,-0.6932,-0.6943,-0.6962,-0.698,-0.6993,-0.7009,-0.7021,-0.7035,-0.7052,-0.7074,-0.7082,-0.7103,-0.7122,-0.7153,-0.7165,-0.7182,-0.7183,-0.7187,-0.7188,-0.7189,-0.7189,-0.7168,-0.7186,-0.7186,-0.7186,-0.7186,-0.7186,0,-0.6943,-0.6956,-0.6972,-0.6994,-0.7009,-0.7014,-0.7033,-0.7045,-0.7063,-0.708,-0.7097,-0.7121,-0.7141,-0.716,-0.7181,-0.7192,-0.7195,-0.7197,-0.7196,-0.7199,-0.7187,-0.7183,-0.7193,-0.7193,-0.7193,-0.7193,-0.7193,-0.7193,-0.695,-0.6969,-0.6979,-0.7005,-0.7018,-0.7038,-0.7049,-0.7063,-0.7077,-0.7103,-0.712,-0.7132,-0.715,-0.7173,-0.7193,-0.7198,-0.7206,-0.7206,-0.7212,-0.7201,-0.72,-0.7199,-0.7194,-0.7207,-0.7207,-0.7222,-0.7222,-0.7223]},{"header":{"parameterUnit":"m.s-1","parameterCategory":1,"la1":30.2991,"la2":30.254,"lo1":-89.0895,"lo2":-89.0444,"dy":0.0017,"dx":0.0017,"nx":28,"ny":28,"refTime":"2025-05-18T21:00:00:Z","depth":0,"parameterNumber":3,"parameterNumberName":"V-component_of_WINDS"},"data":[0,0,0,0,0,0,0,0,0,0,0,0,0,0,0,0,0,0,0,0,0,0,0,0,0,0,0,0,0,0,0,0,0,0,0,0,0,0,0,0,0,0,0,0,0,0,0,0,0,0,0,0,0,0,0,0,0,0,3.2245,3.2245,0,3.2283,3.2284,3.2284,3.2272,3.2271,3.2271,3.227,3.2305,3.2307,3.2308,0,0,0,0,0,0,0,0,0,0,0,0,0,3.2157,3.2159,3.2245,3.2246,3.2246,3.2283,3.2284,3.2284,3.2272,3.2271,3.227,3.2269,3.2305,3.2307,3.2309,0,0,0,0,0,0,0,0,0,0,0,0,0,3.2195,3.216,3.2245,3.2245,3.2245,3.2283,3.2284,3.2285,3.2273,3.2271,3.227,3.2269,3.2304,3.2306,3.2309,3.2349,0,0,3.2317,3.2318,0,0,0,0,0,0,0,0,3.2193,3.2199,3.2244,3.2245,3.2245,3.2272,3.2266,3.2306,3.2273,3.2262,3.227,3.2268,3.2295,3.2298,3.2308,3.235,3.2352,3.2317,3.2318,3.2319,3.232,0,0,0,0,0,0,0,3.2191,3.2197,3.226,3.2245,3.2245,3.2241,3.2245,3.2273,3.2284,3.2263,3.2262,3.2267,3.2295,3.2305,3.2308,3.2352,3.2317,3.2319,3.2321,3.2322,3.2429,3.2431,0,0,0,0,0,0,3.2188,3.2195,3.2259,3.2261,3.2216,3.2244,3.2248,3.2264,3.2284,3.2286,3.2268,3.2266,3.2302,3.2306,3.231,3.2358,3.2319,3.2322,3.2323,3.2428,3.243,3.2431,0,0,0,0,0,0,3.2186,3.2194,3.2257,3.2228,3.2236,3.2247,3.2265,3.2266,3.2276,3.2288,3.229,3.2277,3.2301,3.2306,3.2339,3.2359,3.2323,3.2325,3.2426,3.2428,3.243,3.2454,0,0,0,0,0,0,3.2184,3.2194,3.221,3.2228,3.2237,3.2288,3.2266,3.2267,3.2281,3.2279,3.2297,3.2299,3.23,3.2336,3.2342,3.2362,3.2327,3.2425,3.2427,3.243,3.2452,3.2457,3.2461,0,0,0,0,0,3.2181,3.2214,3.2211,3.2218,3.2258,3.2289,3.2294,3.2296,3.2283,3.2299,3.2306,3.2298,3.2356,3.2339,3.2346,3.2367,3.2423,3.2427,3.2429,3.245,3.2456,3.2461,0,0,0,0,0,0,3.2196,3.2216,3.2213,3.2253,3.227,3.2287,3.2307,3.2302,3.2322,3.2319,3.232,3.2324,3.2358,3.2365,3.2347,3.2406,3.2387,3.2392,3.24,3.2406,3.2411,3.2408,3.2329,0,0,0,0,0,3.2204,3.2229,3.2245,3.2279,3.2287,3.2296,3.2309,3.231,3.2326,3.2332,3.2342,3.2357,3.2379,3.2393,3.2413,3.2452,3.2456,3.247,3.2475,3.2479,3.2483,3.2504,3.2511,3.2441,3.2441,3.2441,0,0,3.2221,3.2235,3.225,3.2282,3.2295,3.2319,3.2301,3.2328,3.2346,3.2336,3.2369,3.2376,3.2393,3.243,3.2446,3.2437,3.2503,3.2482,3.2485,3.2487,3.2508,3.2514,3.252,3.2443,3.2443,3.2442,0,0,3.2264,3.2277,3.2308,3.2321,3.2341,3.2346,3.2353,3.2372,3.2377,3.241,3.2403,3.2423,3.246,3.2473,3.2484,3.2532,3.2525,3.2538,3.2563,3.2584,3.2589,3.2594,3.2611,3.2618,3.2542,3.2542,3.2542,0,3.2282,3.232,3.2323,3.2351,3.2365,3.2358,3.2388,3.24,3.2425,3.2434,3.2424,3.2471,3.2481,3.2521,3.2533,3.2542,3.2549,3.2536,3.2588,3.2593,3.2598,3.2614,3.2621,3.2544,3.2543,3.2543,3.2543,0,3.2341,3.2368,3.2389,3.2416,3.2432,3.246,3.2466,3.2482,3.2481,3.2487,3.252,3.2533,3.2556,3.2565,3.2564,3.2605,3.2598,3.2588,3.2569,3.2606,3.2622,3.2628,3.2546,3.2545,3.2545,3.2544,0,0,3.2395,3.2423,3.2431,3.2443,3.2465,3.2484,3.2512,3.2536,3.2549,3.2567,3.259,3.2621,3.2612,3.2625,3.2624,3.2643,3.268,3.263,3.263,3.2639,3.2726,3.2734,3.2741,3.2676,3.2677,3.2678,3.2725,0,3.2441,3.2492,3.2495,3.254,3.2564,3.2559,3.2583,3.2598,3.2604,3.2624,3.263,3.2653,3.2639,3.2647,3.2665,3.2672,3.2698,3.2668,3.2696,3.2697,3.2693,3.275,3.2758,3.2802,3.2731,3.2732,3.2733,0,3.2501,3.2522,3.257,3.2588,3.2599,3.2621,3.2643,3.2663,3.2679,3.2682,3.2697,3.2694,3.2721,3.2701,3.2739,3.2719,3.273,3.2735,3.2737,3.274,3.2718,3.2754,3.2816,3.2822,3.2742,3.2741,3.2741,0,3.2536,3.2576,3.261,3.262,3.2642,3.2658,3.2668,3.2683,3.2697,3.2716,3.2725,3.2746,3.2758,3.2774,3.2777,3.2762,3.2814,3.2794,3.2817,3.2817,3.2829,3.2828,3.2893,3.2835,3.2835,3.2835,3.2835,0,3.2586,3.2616,3.2626,3.2647,3.268,3.2683,3.2715,3.2723,3.2738,3.2759,3.2754,3.2774,3.2777,3.2797,3.2799,3.283,3.2835,3.2838,3.2838,3.2838,3.2838,3.2846,3.2843,3.2837,3.2836,3.2836,3.2836,0,3.2631,3.2639,3.2676,3.2695,3.27,3.2724,3.2739,3.2758,3.2764,3.2792,3.2798,3.2807,3.2831,3.2835,3.2862,3.2864,3.2901,3.2897,3.2896,3.2895,3.2918,3.2916,3.2991,3.3001,3.2936,3.2937,3.2938,0,3.2664,3.2687,3.2708,3.2723,3.2734,3.2758,3.2773,3.2777,3.2792,3.2813,3.283,3.2853,3.2873,3.2911,3.2919,3.294,3.2937,3.2962,3.294,3.294,3.2938,3.2937,3.2939,3.2966,3.2967,3.2968,3.2968,0,3.272,3.2723,3.2746,3.277,3.2788,3.2807,3.2824,3.2836,3.2842,3.2859,3.2884,3.2899,3.2928,3.2951,3.2972,3.2981,3.2975,3.2975,3.2981,3.2982,3.2981,3.2982,3.2908,3.2973,3.2973,3.2972,3.2972,3.2972,3.276,3.278,3.2799,3.2824,3.2838,3.2855,3.2874,3.2883,3.2905,3.293,3.293,3.2957,3.2973,3.3001,3.3011,3.3031,3.3023,3.3033,3.3035,3.3037,3.304,3.2977,3.3035,3.3035,3.3035,3.3035,3.3035,0,3.2817,3.2829,3.2852,3.2877,3.2897,3.2891,3.291,3.2927,3.2952,3.2967,3.2987,3.3015,3.3038,3.3048,3.307,3.3085,3.3083,3.309,3.309,3.3092,3.3046,3.3038,3.3092,3.3092,3.3092,3.3092,3.3092,3.3092,3.2849,3.2883,3.2888,3.2929,3.294,3.2968,3.298,3.2995,3.3007,3.304,3.306,3.3067,3.308,3.3103,3.3123,3.3125,3.3134,3.3143,3.3144,3.3101,3.3095,3.3089,3.3082,3.3144,3.3144,3.3188,3.3189,3.3189]}]]